Location: Blairvadach
(56.2780°N, 6.9720°W)
Time: 21:26:42
(UTC+00:00)

Envisat - Pass Details

Date: 18 November 2019
Orbit: 764 x 766 km, 98.1° (Epoch: 07 December)

Event Time Altitude Azimuth Distance (km) Brightness Sun altitude
Rises 19:35:54 0° 206° (SSW) 3,225 6.5 -27.4°
Reaches altitude 10° 19:38:43 10° 222° (SW) 2,304 5.9 -27.8°
Maximum altitude 19:42:34 21° 272° (W) 1,658 5.4 -28.3°
Drops below altitude 10° 19:46:27 10° 322° (NW) 2,316 6.0 -28.8°
Sets 19:49:19 0° 338° (NNW) 3,247 6.6 -29.2°
